SCP
0 0 0 0 0 0 0 1 1 1 1 1 1 1 1 1 1 1 1 0 0 0 0 0 0 0 0 0 0 0 0 0 0 0 0 0 1 0 0 0 0 0 0
0 0 0 0 0 0 0 1 1 1 1 1 1 1 1 1 1 1 1 0 0 0 0 0 0 0 0 0 0 0 0 0 0 0 0 0 1 1 0 0 0 0 0
0 0 0 1 0 0 1 1 1 1 1 1 1 1 1 1 1 1 1 0 0 0 0 0 0 0 0 0 0 0 0 0 0 0 0 0 1 1 1 0 0 0 0
1 1 1 1 1 1 1 1 1 1 1 1 1 1 1 1 1 1 1 0 0 0 0 0 0 0 0 0 0 0 0 0 0 0 0 0 0 1 1 1 0 0 0
1 1 1 1 1 1 1 1 1 1 1 1 1 1 1 0 0 0 0 0 0 0 0 0 0 0 0 0 0 0 0 0 0 0 0 0 0 0 0 0 0 0 0
1 1 1 1 1 1 1 1 1 1 1 1 1 1 1 0 0 0 0 0 0 0 0 0 0 0 0 0 0 0 0 0 0 0 0 0 0 0 0 0 0 0 0
1 1 1 1 1 1 1 1 1 1 1 1 1 1 1 0 0 0 0 0 0 0 1 0 0 0 0 0 0 0 0 0 0 0 0 0 0 0 0 0 0 0 0
1 1 1 1 1 1 1 1 1 1 1 1 1 1 1 0 0 0 0 0 0 0 1 1 0 0 0 0 0 0 0 0 0 0 0 0 0 0 0 0 0 0 0
1 1 1 1 1 1 1 1 1 1 1 1 1 1 1 1 0 0 0 0 0 0 0 0 0 0 0 0 0 0 0 0 0 0 0 0 0 0 0 0 0 0 0
1 1 1 1 1 1 1 1 1 1 1 1 1 1 1 1 0 0 0 0 0 0 0 0 0 0 0 0 0 0 0 0 0 0 0 0 0 0 0 0 0 0 0
1 1 1 1 1 1 1 1 1 1 1 1 1 1 1 1 0 0 0 0 0 0 0 0 0 0 0 0 0 0 0 0 0 0 0 0 0 0 0 0 0 0 0
1 1 1 1 1 1 1 1 1 1 1 1 1 1 0 0 0 0 0 0 0 0 0 0 0 0 0 0 0 0 0 0 0 0 0 0 0 0 0 0 0 0 0
0 0 0 0 0 0 0 1 1 0 0 0 0 0 0 0 0 0 0 0 0 0 0 0 0 0 0 0 0 0 0 0 0 0 0 0 0 0 0 0 0 0 0
0 0 0 0 0 0 0 0 0 0 0 0 0 0 0 0 0 0 0 0 0 0 0 0 0 0 0 0 0 0 0 0 0 0 0 0 0 0 0 0 0 0 0
0 0 0 0 0 0 0 0 0 0 0 0 0 0 0 0 0 0 0 0 0 0 0 0 0 0 0 0 0 0 0 0 0 0 0 0 0 0 0 0 0 0 0
0 0 0 0 0 0 0 0 0 0 0 0 0 0 0 0 0 0 0 0 0 0 0 0 0 0 0 0 0 0 0 0 0 0 0 0 0 0 0 0 0 0 0
0 0 0 0 0 0 0 0 0 0 0 0 0 0 0 0 0 0 0 0 0 0 0 0 0 0 0 0 0 0 0 0 0 0 0 0 0 0 0 0 0 0 0
0 0 0 0 0 0 0 0 0 0 0 0 0 0 0 0 0 0 0 0 0 0 0 0 0 0 0 0 0 0 0 0 0 0 0 0 0 0 0 0 0 0 0
0 0 0 0 0 0 0 0 0 0 0 0 0 0 0 0 0 0 0 0 0 0 0 0 0 0 0 0 0 0 0 0 0 0 0 0 0 0 0 0 0 0 0
0 0 0 0 0 0 0 0 0 0 0 0 0 0 0 0 0 0 0 0 0 0 0 0 0 0 0 0 0 0 0 0 0 0 0 0 0 0 0 0 0 0 0
0 0 0 0 0 0 0 0 0 0 0 0 0 0 0 0 0 0 0 0 0 0 0 0 0 0 0 0 0 0 0 0 0 0 0 0 0 0 0 0 0 0 0
0 0 0 0 0 0 0 0 0 0 0 0 0 0 0 0 0 0 0 0 0 0 0 0 0 0 0 0 0 0 0 0 0 0 0 0 0 0 0 0 0 0 0
0 0 0 0 0 0 0 0 0 0 0 0 0 0 0 0 0 0 0 0 0 0 0 0 0 0 0 0 0 0 0 0 0 0 0 0 0 0 0 0 0 0 0
0 0 0 0 0 0 0 0 0 0 0 0 0 0 0 0 0 0 0 0 0 0 0 0 0 0 0 0 0 0 0 0 0 0 0 0 0 0 0 0 0 0 0
0 0 0 0 0 0 0 0 0 0 0 0 0 0 0 0 0 0 0 0 0 0 0 0 0 0 0 0 0 0 0 0 0 0 0 0 0 0 0 0 0 0 0
0 0 0 0 0 0 0 0 0 0 0 0 0 0 0 0 0 0 0 0 0 0 0 0 0 0 0 0 0 0 0 0 0 0 0 0 0 0 0 0 0 0 0
Wind_Speed
8 7 7 7 7 7 6 6 5 5 5 6 6 7 7 6 6 5 5 5 5 5 5 4 4 3 2 2 2 2 2 2 2 2 1 1 2 2 3 3 3 4 7
8 7 7 6 6 6 6 6 5 6 6 6 5 6 6 7 6 6 6 5 5 5 5 4 4 4 4 3 3 3 2 2 2 3 2 1 2 4 4 4 5 6 5
8 8 7 7 6 6 6 5 5 6 6 6 5 5 5 5 6 6 6 5 5 5 5 4 4 4 4 4 4 3 3 3 3 3 3 2 2 3 4 5 6 4 6
8 8 7 7 6 6 5 5 5 5 5 5 5 5 4 4 5 5 5 5 5 5 5 4 4 4 4 4 4 4 4 4 3 3 3 3 3 3 2 3 3 3 5
6 7 7 6 6 5 5 5 5 5 5 5 4 4 4 4 4 4 4 6 5 5 4 4 4 5 4 4 4 3 4 3 3 3 3 3 3 2 2 2 4 3 4
5 6 6 6 6 6 5 5 5 5 4 5 5 5 4 4 4 5 4 4 5 5 5 4 4 4 5 5 4 4 3 4 4 3 3 3 3 2 2 2 2 3 3
5 5 5 5 6 5 6 6 6 5 5 4 4 4 4 3 4 6 7 5 4 4 4 3 5 4 5 4 5 5 5 6 6 4 5 5 4 2 2 3 3 4 5
6 5 5 5 5 5 5 5 5 4 4 4 4 4 3 3 5 6 6 5 4 3 3 3 2 1 1 1 3 4 4 4 6 6 5 6 5 3 3 4 5 5 5
5 5 4 4 4 5 4 4 4 4 4 4 3 3 3 2 3 4 4 3 3 3 2 2 2 2 2 2 3 3 4 4 6 6 7 7 8 8 6 3 4 5 6
4 4 4 4 4 4 3 3 3 3 3 3 3 3 3 2 3 3 3 2 2 2 2 2 2 2 2 3 3 3 4 4 4 4 5 6 7 8 9 7 6 6 5
6 7 6 5 4 4 3 3 2 2 2 3 3 3 3 3 5 4 3 1 1 1 1 1 1 2 3 3 3 3 4 3 4 5 4 5 5 4 5 5 5 5 6
7 8 7 6 5 5 4 3 3 1 1 2 2 3 3 4 4 3 3 1 2 2 2 1 1 1 3 4 4 5 5 4 4 4 4 4 4 4 3 4 4 5 6
9 8 8 7 7 6 5 5 4 3 2 1 2 2 3 3 4 4 1 1 2 2 2 3 3 3 3 4 6 6 5 3 3 4 4 4 3 3 3 3 4 4 6
9 8 7 8 7 8 7 6 6 6 5 5 5 4 4 5 5 3 2 1 1 2 2 3 4 5 4 4 3 4 4 4 4 4 4 4 3 3 4 3 4 4 4
7 6 6 6 6 7 7 7 7 6 5 5 5 5 5 5 4 5 3 3 3 2 3 3 2 2 1 2 2 2 2 2 3 3 4 4 4 4 4 4 4 4 5
6 5 4 4 4 4 5 7 11 8 9 11 9 7 5 5 4 6 5 5 5 4 3 3 2 2 2 2 2 2 2 2 2 3 3 4 4 4 4 4 4 4 5
6 5 4 4 4 4 4 4 4 5 7 7 8 8 6 4 4 5 6 6 6 3 2 3 3 3 3 4 3 3 3 3 3 3 3 3 4 4 5 5 5 5 5
5 5 4 4 3 3 3 3 3 3 3 3 3 3 2 2 3 4 5 5 3 1 2 3 3 4 4 4 4 4 4 4 4 4 4 4 4 4 5 5 5 5 5
6 5 4 4 3 4 4 4 4 5 4 4 4 2 2 2 2 3 3 3 4 5 4 4 4 4 4 4 4 4 5 5 5 5 5 4 4 5 5 6 6 7 6
4 5 4 4 4 5 4 4 4 4 4 5 5 4 3 2 2 3 3 4 5 5 5 5 5 5 5 5 5 5 5 5 5 5 5 5 5 5 6 7 6 6 6
4 4 4 5 6 6 5 5 5 5 5 4 5 5 5 4 4 5 5 5 5 5 6 6 6 6 5 5 5 6 7 5 5 5 5 5 6 6 6 6 7 6 6
5 5 6 6 6 6 5 5 5 5 5 5 4 3 3 4 5 5 5 5 5 5 5 5 5 5 5 6 6 6 7 7 6 6 7 7 6 6 6 7 7 7 7
5 6 6 5 5 5 5 6 6 6 5 5 5 4 4 5 5 5 5 6 5 5 5 5 6 6 6 6 6 5 5 6 6 7 8 8 8 7 7 8 9 8 8
5 6 6 5 5 5 6 5 5 6 6 6 6 6 6 6 6 7 6 6 6 6 6 6 6 8 9 7 6 6 6 6 7 7 9 9 9 8 8 8 8 9 8
5 5 6 5 5 5 5 5 5 5 6 6 6 6 6 6 6 7 7 7 7 7 8 7 6 7 9 11 9 8 7 7 7 7 8 8 9 9 8 9 8 8 8
6 6 5 5 5 5 5 5 5 6 5 5 5 6 6 6 6 6 6 7 7 6 7 6 8 9 11 9 10 9 7 8 8 8 7 7 8 8 8 7 10 9 9
Wind_Direction
179 180 178 178 183 184 187 185 182 186 184 176 179 182 185 184 186 190 207 199 200 213 222 218 216 244 274 278 246 243 251 245 253 257 242 161 157 193 165 219 218 204 211
179 176 178 175 176 180 186 186 183 184 182 183 184 187 191 189 189 190 207 207 203 214 223 227 219 229 232 267 278 263 252 241 239 256 256 242 213 200 199 216 238 244 240
175 176 176 176 174 178 180 179 183 182 181 181 182 186 193 190 189 193 200 210 210 216 219 221 223 231 232 234 247 264 266 256 228 242 252 248 234 221 210 221 238 251 265
170 170 170 173 175 178 175 177 177 177 178 180 183 183 188 193 194 196 197 210 222 226 223 221 221 226 228 233 241 245 261 273 262 253 257 255 247 233 212 219 244 240 251
158 165 169 170 172 176 175 175 174 179 185 173 176 179 189 196 202 202 204 211 217 227 226 223 222 219 219 221 242 238 246 251 258 257 257 261 259 261 246 239 252 255 252
153 160 159 165 170 176 174 173 170 175 178 176 180 183 187 204 196 190 198 215 212 216 218 219 226 216 213 216 230 245 254 254 262 263 262 259 261 259 266 273 280 283 278
157 162 162 166 169 172 177 170 175 178 181 183 182 182 180 191 189 189 200 216 216 208 210 217 233 225 200 208 220 234 246 248 240 254 265 268 277 287 303 293 284 280 272
159 161 157 161 165 163 165 172 175 174 179 181 181 185 184 195 185 186 202 215 225 221 212 207 210 263 274 225 228 232 236 239 233 231 247 260 268 270 264 268 272 273 266
149 148 150 158 159 155 162 170 169 166 170 174 173 180 184 177 171 183 196 213 217 228 224 211 192 199 227 235 228 241 251 252 244 248 247 253 258 260 254 262 265 270 276
124 131 137 140 139 145 154 154 156 165 175 172 172 169 162 135 139 155 183 219 232 234 204 185 161 196 218 219 231 243 256 269 282 278 264 260 254 252 244 233 242 255 267
85 84 82 92 101 101 102 101 116 149 166 165 153 140 129 119 124 132 152 265 290 274 249 186 143 190 225 231 235 245 253 277 283 273 262 254 248 243 237 231 229 237 252
73 75 70 65 69 76 78 83 87 88 148 157 143 125 111 105 104 134 154 235 307 316 314 352 92 197 245 248 243 250 264 279 272 275 274 269 267 262 259 252 244 241 241
67 68 68 64 56 51 57 58 57 48 44 73 87 90 88 84 80 81 102 284 314 315 342 355 335 284 263 252 240 247 257 253 254 265 274 279 281 286 290 281 274 266 263
68 65 67 66 62 54 48 48 46 39 34 37 39 45 60 60 45 28 17 3 325 322 324 310 286 272 262 271 272 238 230 242 252 263 274 280 286 286 281 280 283 284 281
73 69 77 77 73 72 67 53 59 52 48 55 50 50 46 47 32 19 9 4 354 354 320 283 271 268 259 256 259 262 253 258 263 271 278 285 287 289 289 290 283 285 281
72 62 72 81 81 86 97 81 53 65 66 66 67 70 78 74 56 37 22 2 344 342 328 301 307 315 324 325 320 313 306 311 308 304 305 305 304 302 300 297 290 287 288
67 57 51 59 69 80 84 99 104 80 64 62 64 67 69 68 45 19 4 349 334 352 336 321 332 342 349 347 339 332 325 325 321 318 313 309 311 310 306 303 302 300 300
63 61 45 51 51 62 63 66 79 87 97 97 82 69 51 25 5 354 352 350 345 6 337 338 344 350 352 343 336 335 333 333 333 328 320 314 313 311 308 305 303 302 303
46 45 37 32 40 54 49 47 51 52 52 69 99 69 341 322 327 352 6 350 352 1 1 358 357 348 340 339 340 336 333 329 327 322 314 318 320 315 311 310 307 308 304
61 42 26 29 40 43 41 40 46 47 47 47 50 41 13 3 12 26 28 7 1 2 359 354 348 343 344 342 336 332 328 326 327 325 324 323 322 316 313 312 311 312 307
50 59 45 42 45 36 31 33 37 37 38 47 52 49 14 6 20 22 22 16 7 1 359 354 351 347 350 348 343 336 332 331 334 331 324 322 321 316 311 307 305 300 299
24 37 41 41 45 36 23 27 30 30 30 35 42 48 26 11 17 17 15 14 13 5 357 348 345 347 350 346 345 341 338 338 338 334 327 320 314 310 308 303 299 300 299
29 37 42 41 38 36 31 33 31 29 27 27 26 27 29 20 17 16 15 10 4 360 358 355 349 350 354 348 342 343 346 347 338 326 320 314 311 308 303 299 300 300 298
32 35 38 39 37 35 34 32 32 29 29 28 27 25 22 21 21 17 14 9 360 358 356 353 349 348 351 351 346 353 3 348 331 319 316 309 304 298 298 299 300 301 299
35 33 33 36 37 35 34 30 30 30 30 32 29 26 22 21 21 16 9 2 355 356 353 351 347 350 355 356 357 359 355 340 328 322 311 302 298 297 298 299 300 302 301
34 33 33 35 36 32 31 33 31 28 29 28 29 29 23 19 19 15 4 1 355 355 354 353 355 5 7 4 1 357 347 335 325 316 307 297 295 297 303 301 303 304 304